Bowling Green, KY

3:12 AM CST on December 15, 2017 (GMT -0600)
Bowling Green-Warren County Regional

Weather History for KBWG - August, 2013

Change the Weather History Date:

Wednesday, August 21, 2013

  Actual Average Record
Temperature  
Mean Temperature 79 °F 77 °F  
Max Temperature 89 °F 89 °F 105 °F (1936)
Min Temperature 69 °F 66 °F 50 °F (1943)
Degree Days  
Heating Degree Days 0 0  
Month to date heating degree days 0 0  
Since 1 June heating degree days 0 5  
Since 1 July heating degree days 0 0  
Cooling Degree Days 14 12  
Month to date cooling degree days 214 272  
Year to date cooling degree days 1117 1153  
Since 1 June cooling degree days 904 1000  
Growing Degree Days 29 (Base 50)    
Moisture  
Dew Point 70 °F    
Average Humidity 72    
Maximum Humidity 93    
Minimum Humidity 50    
Precipitation  
Precipitation T in 0.12 in 1.17 in (1969)
Month to date precipitation 5.07 2.18  
Year to date precipitation 41.64 32.41  
Snow  
Snow 0.00 in 0.00 in 0.00 in ()
Month to date snowfall 0.0 0.0  
Since 1 June snowfall 0.0 0.0  
Since 1 July snowfall 0.0 0.0  
Snow Depth 0.00 in    
Sea Level Pressure  
Sea Level Pressure 30.12 in    
Wind  
Wind Speed 4 mph (SSW)    
Max Wind Speed 12 mph    
Max Gust Speed 15 mph    
Visibility 10 miles    
Events Rain , Thunderstorm    
T = Trace of Precipitation, MM = Missing Value Source: NWS Daily Summary

Daily Weather History Graph

Daily Weather History Graph

Search for Another Location

Airport or City:

Trip Planner

Search our weather history database for the weather conditions in past years. The results will help you decide how hot, cold, wet, or windy it might be!

Date:

Astronomy

Aug. 21, 2013 Rise Set
Actual Time 6:07 AM CDT 7:29 PM CDT
Civil Twilight 5:40 AM CDT 7:56 PM CDT
Nautical Twilight 5:08 AM CDT 8:28 PM CDT
Astronomical Twilight 4:33 AM CDT 9:02 PM CDT
Moon 7:40 PM CDT (8/21) 6:44 AM CDT (8/21)
Length of Visible Light 14h 15m
Length of Day
13h 21m
Waxing Gibbous, 99% of the Moon is Illuminated
Aug 21
Waxing Gibbous
Aug 28
Last Quarter
Sep 5
New
Sep 12
First Quarter
Sep 19
Full

Hourly Weather History & Observations

Time (CDT) Temp. Heat Index Dew Point Humidity Pressure Visibility Wind Dir Wind Speed Gust Speed Precip Events Conditions
12:53 AM 73.0 °F - 68.0 °F 84% 30.12 in 10.0 mi South 5.8 mph - N/A   Partly Cloudy
1:53 AM 73.0 °F - 68.0 °F 84% 30.10 in 10.0 mi Variable 3.5 mph - N/A   Clear
2:53 AM 70.0 °F - 66.9 °F 90% 30.10 in 10.0 mi Calm Calm - N/A   Partly Cloudy
3:53 AM 71.1 °F - 68.0 °F 90% 30.10 in 10.0 mi ESE 3.5 mph - N/A   Mostly Cloudy
4:53 AM 71.1 °F - 68.0 °F 90% 30.11 in 10.0 mi Calm Calm - N/A   Clear
5:53 AM 72.0 °F - 69.1 °F 91% 30.12 in 10.0 mi Calm Calm - N/A   Clear
6:53 AM 72.0 °F - 69.1 °F 91% 30.14 in 10.0 mi South 3.5 mph - N/A   Scattered Clouds
7:53 AM 75.0 °F - 71.1 °F 87% 30.16 in 10.0 mi SSW 5.8 mph - N/A   Clear
8:53 AM 77.0 °F - 71.1 °F 82% 30.16 in 10.0 mi SSW 8.1 mph - N/A   Mostly Cloudy
9:53 AM 80.1 °F 83.8 °F 72.0 °F 76% 30.17 in 10.0 mi SW 8.1 mph - N/A   Partly Cloudy
10:53 AM 82.9 °F 88.8 °F 73.0 °F 72% 30.15 in 10.0 mi WSW 9.2 mph - N/A   Scattered Clouds
11:43 AM 84.2 °F 89.6 °F 71.6 °F 66% 30.16 in 10.0 mi WSW 6.9 mph - N/A   Mostly Cloudy
11:53 AM 84.0 °F 89.0 °F 71.1 °F 65% 30.14 in 10.0 mi SW 5.8 mph - N/A   Mostly Cloudy
12:01 PM 82.4 °F 86.3 °F 69.8 °F 66% 30.16 in 10.0 mi West 5.8 mph - N/A   Scattered Clouds
12:53 PM 86.0 °F 89.4 °F 68.0 °F 55% 30.13 in 10.0 mi SSW 5.8 mph - N/A   Clear
1:53 PM 84.9 °F 87.1 °F 66.0 °F 53% 30.12 in 10.0 mi WSW 5.8 mph - N/A   Clear
2:53 PM 88.0 °F 90.3 °F 66.0 °F 48% 30.10 in 10.0 mi WSW 8.1 mph - N/A   Scattered Clouds
3:53 PM 86.0 °F 90.1 °F 69.1 °F 57% 30.09 in 10.0 mi SSW 8.1 mph - N/A   Mostly Cloudy
4:40 PM 82.4 °F 88.2 °F 73.4 °F 74% 30.10 in 10.0 mi SE 9.2 mph - N/A Thunderstorm Overcast
4:53 PM 82.9 °F 88.0 °F 72.0 °F 69% 30.09 in 10.0 mi SE 8.1 mph - N/A Thunderstorm Thunderstorm
5:23 PM 78.8 °F - 69.8 °F 74% 30.10 in 10.0 mi SSE 4.6 mph - N/A Thunderstorm Mostly Cloudy
5:53 PM 79.0 °F - 71.1 °F 77% 30.09 in 10.0 mi NE 3.5 mph - N/A Thunderstorm Thunderstorm
6:19 PM 77.0 °F - 69.8 °F 78% 30.10 in 10.0 mi SW 4.6 mph - 0.00 in Rain Light Rain
6:53 PM 77.0 °F - 71.1 °F 82% 30.09 in 10.0 mi Calm Calm - 0.00 in   Scattered Clouds
7:53 PM 75.0 °F - 71.1 °F 87% 30.09 in 10.0 mi Calm Calm - N/A   Clear
8:53 PM 75.9 °F - 72.0 °F 87% 30.11 in 10.0 mi Calm Calm - N/A   Partly Cloudy
9:53 PM 73.9 °F - 71.1 °F 91% 30.10 in 10.0 mi Calm Calm - N/A   Clear
10:53 PM 75.0 °F - 71.1 °F 87% 30.12 in 10.0 mi Calm Calm - N/A   Mostly Cloudy
11:53 PM 75.0 °F - 71.1 °F 87% 30.13 in 10.0 mi Calm Calm - N/A   Clear